| time (UTC) | temp F | wind direction | speed MPH | gust MPH | rain 1hr in | rain 24hr in | rain mn in | humidity % | barometer mb |
| 20260507200025 | 71 | 330 | 4.0 | 10.0 | 0.00 | 0.00 | 0.00 | 29 | 1005.4 |
| 20260507194533 | 70 | 21 | 2.0 | 7.0 | 0.00 | 0.00 | 0.00 | 30 | 1005.4 |
| 20260507193021 | 70 | 307 | 3.0 | 7.0 | 0.00 | 0.00 | 0.00 | 29 | 1005.5 |
| 20260507191520 | 69 | 40 | 3.0 | 8.0 | 0.00 | 0.00 | 0.00 | 30 | 1005.5 |
| 20260507190020 | 69 | 30 | 1.0 | 8.0 | 0.00 | 0.00 | 0.00 | 32 | 1005.6 |
| 20260507184513 | 68 | 57 | 3.0 | 7.0 | 0.00 | 0.00 | 0.00 | 31 | 1005.8 |
| 20260507183013 | 67 | 309 | 1.0 | 7.0 | 0.00 | 0.00 | 0.00 | 33 | 1005.8 |
| 20260507181509 | 67 | 306 | 1.0 | 8.0 | 0.00 | 0.00 | 0.00 | 34 | 1006.0 |
| 20260507180006 | 66 | 25 | 3.0 | 7.0 | 0.00 | 0.00 | 0.00 | 33 | 1005.9 |
| 20260507174509 | 66 | 228 | 2.0 | 7.0 | 0.00 | 0.00 | 0.00 | 34 | 1005.9 |
| 20260507173007 | 66 | 14 | 4.0 | 8.0 | 0.00 | 0.00 | 0.00 | 33 | 1005.9 |
| 20260507171601 | 65 | 31 | 4.0 | 7.0 | 0.00 | 0.00 | 0.00 | 33 | 1005.9 |
| 20260507170059 | 65 | 37 | 3.0 | 8.0 | 0.00 | 0.00 | 0.00 | 34 | 1005.8 |
| 20260507164628 | 64 | 60 | 3.0 | 9.0 | 0.00 | 0.00 | 0.00 | 34 | 1005.9 |
| 20260507163055 | 64 | 34 | 2.0 | 8.0 | 0.00 | 0.00 | 0.00 | 38 | 1005.8 |
| 20260507161555 | 63 | 336 | 2.0 | 8.0 | 0.00 | 0.00 | 0.00 | 40 | 1005.9 |
| 20260507160046 | 62 | 291 | 2.0 | 9.0 | 0.00 | 0.00 | 0.00 | 40 | 1005.9 |
| 20260507154544 | 60 | 86 | 3.0 | 7.0 | 0.00 | 0.00 | 0.00 | 41 | 1006.1 |
| 20260507153043 | 60 | 29 | 2.0 | 9.0 | 0.00 | 0.00 | 0.00 | 43 | 1006.0 |
| 20260507151538 | 59 | 33 | 1.0 | 5.0 | 0.00 | 0.00 | 0.00 | 45 | 1006.0 |
| 20260507150043 | 59 | 58 | 1.0 | 6.0 | 0.00 | 0.00 | 0.00 | 45 | 1006.0 |
| 20260507144538 | 58 | 27 | 1.0 | 4.0 | 0.00 | 0.00 | 0.00 | 47 | 1006.1 |
| 20260507143036 | 56 | 308 | 1.0 | 6.0 | 0.00 | 0.00 | 0.00 | 50 | 1006.1 |
| 20260507141532 | 55 | 293 | 1.0 | 6.0 | 0.00 | 0.00 | 0.00 | 53 | 1006.0 |
| 20260507140029 | 55 | 300 | 1.0 | 5.0 | 0.00 | 0.00 | 0.00 | 53 | 1006.0 |
| 20260507134527 | 55 | 280 | 1.0 | 6.0 | 0.00 | 0.00 | 0.00 | 54 | 1005.8 |
| 20260507133028 | 54 | 39 | 1.0 | 3.0 | 0.00 | 0.00 | 0.00 | 56 | 1005.7 |
| 20260507131525 | 53 | 302 | 1.0 | 5.0 | 0.00 | 0.00 | 0.00 | 58 | 1005.8 |
| 20260507130022 | 52 | 355 | 1.0 | 4.0 | 0.00 | 0.00 | 0.00 | 60 | 1005.6 |
| 20260507124530 | 50 | 41 | 0.0 | 2.0 | 0.00 | 0.00 | 0.00 | 63 | 1005.3 |
| 20260507123023 | 50 | 297 | 0.0 | 1.0 | 0.00 | 0.00 | 0.00 | 65 | 1005.2 |
| 20260507121520 | 50 | 219 | 0.0 | 1.0 | 0.00 | 0.00 | 0.00 | 66 | 1005.1 |
| 20260507120019 | 50 | 269 | 0.0 | 1.0 | 0.00 | 0.00 | 0.00 | 65 | 1005.0 |
| 20260507114515 | 51 | 217 | 0.0 | 2.0 | 0.00 | 0.00 | 0.00 | 65 | 1005.0 |
| 20260507113034 | 52 | 229 | 0.0 | 2.0 | 0.00 | 0.00 | 0.00 | 65 | 1004.8 |
| 20260507111616 | 52 | 209 | 0.0 | 1.0 | 0.00 | 0.00 | 0.00 | 66 | 1004.7 |
| 20260507110015 | 52 | 208 | 0.0 | 1.0 | 0.00 | 0.00 | 0.00 | 67 | 1004.7 |
| 20260507104513 | 52 | 209 | 0.0 | 1.0 | 0.00 | 0.00 | 0.00 | 67 | 1004.7 |
| 20260507103012 | 52 | 208 | 0.0 | 1.0 | 0.00 | 0.00 | 0.00 | 66 | 1004.6 |
| 20260507101515 | 53 | 209 | 0.0 | 2.0 | 0.00 | 0.00 | 0.00 | 65 | 1004.6 |
| 20260507100007 | 53 | 209 | 0.0 | 1.0 | 0.00 | 0.00 | 0.00 | 65 | 1004.5 |
| 20260507094506 | 53 | 210 | 0.0 | 1.0 | 0.00 | 0.00 | 0.00 | 65 | 1004.5 |
| 20260507093005 | 53 | 224 | 0.0 | 1.0 | 0.00 | 0.00 | 0.00 | 64 | 1004.6 |
| 20260507091506 | 54 | 219 | 0.0 | 2.0 | 0.00 | 0.00 | 0.00 | 63 | 1004.4 |
| 20260507090005 | 53 | 219 | 0.0 | 1.0 | 0.00 | 0.00 | 0.00 | 64 | 1004.5 |
| 20260507084506 | 53 | 219 | 0.0 | 0.0 | 0.00 | 0.00 | 0.00 | 65 | 1004.5 |
| 20260507083003 | 53 | 219 | 0.0 | 1.0 | 0.00 | 0.00 | 0.00 | 65 | 1004.4 |
| 20260507081506 | 53 | 219 | 0.0 | 1.0 | 0.00 | 0.00 | 0.00 | 66 | 1004.5 |
| 20260507080105 | 53 | 219 | 0.0 | 1.0 | 0.00 | 0.00 | 0.00 | 66 | 1004.5 |
| 20260507074603 | 54 | 220 | 0.0 | 1.0 | 0.00 | 0.00 | 0.00 | 66 | 1004.7 |
| 20260507073100 | 54 | 220 | 0.0 | 1.0 | 0.00 | 0.00 | 0.00 | 65 | 1004.9 |
| 20260507071555 | 54 | 219 | 0.0 | 1.0 | 0.00 | 0.00 | 0.00 | 65 | 1004.8 |
| 20260507070054 | 55 | 219 | 0.0 | 1.0 | 0.00 | 0.00 | 0.00 | 64 | 1004.9 |
| 20260507064553 | 55 | 289 | 0.0 | 1.0 | 0.00 | 0.00 | 0.00 | 62 | 1005.0 |
| 20260507063049 | 56 | 302 | 0.0 | 0.0 | 0.00 | 0.00 | 0.00 | 60 | 1004.9 |
| 20260507061547 | 56 | 302 | 0.0 | 3.0 | 0.00 | 0.00 | 0.00 | 59 | 1005.1 |
| 20260507060045 | 56 | 275 | 0.0 | 1.0 | 0.00 | 0.00 | 0.00 | 60 | 1005.3 |
| 20260507054543 | 56 | 302 | 0.0 | 1.0 | 0.00 | 0.00 | 0.00 | 60 | 1005.2 |
| 20260507053043 | 56 | 319 | 0.0 | 2.0 | 0.00 | 0.00 | 0.00 | 60 | 1005.0 |
| 20260507051543 | 56 | 284 | 0.0 | 2.0 | 0.00 | 0.00 | 0.00 | 60 | 1005.5 |
| 20260507050043 | 56 | 200 | 0.0 | 1.0 | 0.00 | 0.00 | 0.00 | 61 | 1005.1 |
| 20260507044548 | 56 | 196 | 0.0 | 0.0 | 0.00 | 0.00 | 0.00 | 61 | 1005.0 |
| 20260507043055 | 56 | 197 | 0.0 | 0.0 | 0.00 | 0.00 | 0.00 | 60 | 1004.9 |
| 20260507041540 | 57 | 185 | 0.0 | 0.0 | 0.00 | 0.00 | 0.00 | 58 | 1004.8 |
| 20260507040041 | 58 | 184 | 0.0 | 0.0 | 0.00 | 0.00 | 0.00 | 58 | 1004.8 |
| 20260507034541 | 58 | 150 | 0.0 | 2.0 | 0.00 | 0.00 | 0.00 | 56 | 1004.5 |
| 20260507033039 | 60 | 130 | 0.0 | 1.0 | 0.00 | 0.00 | 0.00 | 52 | 1004.3 |
| 20260507031542 | 61 | 130 | 0.0 | 3.0 | 0.00 | 0.00 | 0.00 | 46 | 1004.0 |
| 20260507030036 | 62 | 139 | 0.0 | 1.0 | 0.00 | 0.00 | 0.00 | 42 | 1004.9 |
| 20260507024536 | 62 | 185 | 0.0 | 2.0 | 0.00 | 0.00 | 0.00 | 41 | 1004.7 |
| 20260507023035 | 62 | 52 | 1.0 | 5.0 | 0.00 | 0.00 | 0.00 | 37 | 1004.7 |
| 20260507021538 | 63 | 165 | 0.0 | 2.0 | 0.00 | 0.00 | 0.00 | 33 | 1005.2 |
| 20260507020046 | 64 | 182 | 0.0 | 0.0 | 0.00 | 0.00 | 0.00 | 32 | 1004.7 |
| 20260507014535 | 64 | 182 | 0.0 | 3.0 | 0.00 | 0.00 | 0.00 | 30 | 1004.3 |
| 20260507013033 | 65 | 39 | 0.0 | 1.0 | 0.00 | 0.00 | 0.00 | 30 | 1003.8 |
| 20260507011543 | 66 | 336 | 0.0 | 1.0 | 0.00 | 0.00 | 0.00 | 29 | 1003.7 |
| 20260507010036 | 66 | 20 | 0.0 | 1.0 | 0.00 | 0.00 | 0.00 | 28 | 1003.9 |
| 20260507004532 | 67 | 211 | 0.0 | 1.0 | 0.00 | 0.00 | 0.00 | 28 | 1003.8 |
| 20260507003031 | 68 | 40 | 0.0 | 2.0 | 0.00 | 0.00 | 0.00 | 28 | 1003.7 |
| 20260507001602 | 68 | 68 | 0.0 | 2.0 | 0.00 | 0.00 | 0.00 | 27 | 1003.7 |
| 20260507000035 | 68 | 41 | 1.0 | 4.0 | 0.00 | 0.00 | 0.00 | 27 | 1003.8 |
| 20260506234528 | 67 | 37 | 1.0 | 3.0 | 0.00 | 0.00 | 0.00 | 27 | 1003.6 |
| 20260506233028 | 67 | 38 | 1.0 | 5.0 | 0.00 | 0.00 | 0.00 | 27 | 1003.7 |
| 20260506231527 | 68 | 15 | 1.0 | 4.0 | 0.00 | 0.00 | 0.00 | 26 | 1003.6 |
| 20260506230035 | 68 | 37 | 1.0 | 5.0 | 0.00 | 0.00 | 0.00 | 27 | 1003.8 |
| 20260506224523 | 68 | 41 | 0.0 | 4.0 | 0.00 | 0.00 | 0.00 | 27 | 1003.9 |
| 20260506223028 | 68 | 24 | 1.0 | 4.0 | 0.00 | 0.00 | 0.00 | 26 | 1004.2 |
| 20260506221520 | 67 | 32 | 2.0 | 7.0 | 0.00 | 0.00 | 0.00 | 26 | 1004.3 |
| 20260506220017 | 68 | 17 | 1.0 | 4.0 | 0.00 | 0.00 | 0.00 | 26 | 1004.6 |
| 20260506214514 | 68 | 200 | 0.0 | 5.0 | 0.00 | 0.00 | 0.00 | 28 | 1004.7 |
| 20260506213012 | 69 | 37 | 0.0 | 4.0 | 0.00 | 0.00 | 0.00 | 26 | 1005.1 |
| 20260506211509 | 69 | 129 | 1.0 | 5.0 | 0.00 | 0.00 | 0.00 | 26 | 1005.3 |
| 20260506210009 | 68 | 210 | 1.0 | 7.0 | 0.00 | 0.00 | 0.00 | 27 | 1005.5 |
| 20260506204505 | 68 | 41 | 0.0 | 5.0 | 0.00 | 0.00 | 0.00 | 26 | 1005.4 |
| 20260506203002 | 67 | 31 | 2.0 | 5.0 | 0.00 | 0.00 | 0.00 | 27 | 1005.5 |
| 20260506201559 | 66 | 317 | 0.0 | 7.0 | 0.00 | 0.00 | 0.00 | 27 | 1005.8 |